Greenville, AL

10:25 AM CDT on April 24, 2017 (GMT -0500)
Greenville Municipal

Weather History for KPRN - October, 2014

Change the Weather History Date:

Friday, October 3, 2014

  Actual Average Record
Temperature  
Mean Temperature 74 °F -  
Max Temperature 82 °F 82 °F 94 °F (1986)
Min Temperature 66 °F 57 °F 41 °F (1974)
Cooling Degree Days 9    
Growing Degree Days 24 (Base 50)    
Moisture  
Dew Point 69 °F    
Average Humidity 84    
Maximum Humidity 94    
Minimum Humidity 61    
Precipitation  
Precipitation 0.62 in - - ()
Sea Level Pressure  
Sea Level Pressure 29.94 in    
Wind  
Wind Speed 6 mph (West)    
Max Wind Speed 17 mph    
Max Gust Speed 25 mph    
Visibility 8 miles    
Events Rain , Thunderstorm    
Averages and records for this station are not official NWS values.
T = Trace of Precipitation, MM = Missing Value Source: NWS Daily Summary

Daily Weather History Graph

Daily Weather History Graph

Search for Another Location

Airport or City:

Trip Planner

Search our weather history database for the weather conditions in past years. The results will help you decide how hot, cold, wet, or windy it might be!

Date:

Astronomy

Oct. 03, 2014 Rise Set
Actual Time 6:41 AM CDT 6:28 PM CDT
Civil Twilight 6:17 AM CDT 6:53 PM CDT
Nautical Twilight 5:48 AM CDT 7:21 PM CDT
Astronomical Twilight 5:20 AM CDT 7:49 PM CDT
Moon 3:05 PM CDT (10/3) 1:19 AM CDT (10/3)
Length of Visible Light 12h 35m
Length of Day
11h 47m
Waxing Gibbous, 71% of the Moon is Illuminated
Oct 3
Waxing Gibbous
Oct 8
Full
Oct 15
Last Quarter
Oct 23
New
Oct 30
First Quarter

Hourly Weather History & Observations

Time (CDT) Temp. Heat Index Dew Point Humidity Pressure Visibility Wind Dir Wind Speed Gust Speed Precip Events Conditions
12:06 AM 73.4 °F - 71.6 °F 94% 29.99 in 8.0 mi SSW 4.6 mph - N/A   Partly Cloudy
12:27 AM 73.4 °F - 71.6 °F 94% 29.98 in 7.0 mi South 4.6 mph - N/A   Mostly Cloudy
12:56 AM 73.9 °F - 72.0 °F 93% 29.96 in 7.0 mi South 5.8 mph - N/A   Overcast
1:56 AM 73.9 °F - 72.0 °F 93% 29.94 in 7.0 mi South 8.1 mph - N/A   Overcast
2:56 AM 75.0 °F - 73.0 °F 94% 29.92 in 9.0 mi South 4.6 mph - N/A   Overcast
3:56 AM 75.9 °F - 73.0 °F 91% 29.91 in 10.0 mi SSW 5.8 mph - N/A   Overcast
4:56 AM 75.9 °F - 73.0 °F 91% 29.91 in 10.0 mi South 8.1 mph - N/A   Overcast
5:39 AM 75.2 °F - 73.4 °F 94% 29.93 in 10.0 mi SSW 6.9 mph - N/A Thunderstorm Thunderstorm
5:50 AM 75.2 °F - 73.4 °F 94% 29.93 in 10.0 mi South 8.1 mph - N/A   Overcast
5:56 AM 75.9 °F - 73.0 °F 91% 29.91 in 10.0 mi SSW 6.9 mph - N/A   Overcast
6:11 AM 75.2 °F - 73.4 °F 94% 29.94 in 10.0 mi SSW 5.8 mph - N/A   Overcast
6:37 AM 75.2 °F - 73.4 °F 94% 29.93 in 10.0 mi SSW 9.2 mph - N/A Thunderstorm Thunderstorm
6:56 AM 75.9 °F - 73.0 °F 91% 29.95 in 6.0 mi West 17.3 mph 25.3 mph 0.02 in Rain , Thunderstorm Light Thunderstorms and Rain
7:03 AM 71.6 °F - 69.8 °F 94% 29.96 in 1.8 mi NW 13.8 mph 25.3 mph 0.08 in Rain , Thunderstorm Heavy Thunderstorms and Rain
7:11 AM 71.6 °F - 68.0 °F 88% 29.98 in 2.0 mi West 11.5 mph 24.2 mph 0.09 in Rain , Thunderstorm Light Thunderstorms and Rain
7:14 AM 71.6 °F - 68.0 °F 88% 29.98 in 0.8 mi West 9.2 mph 19.6 mph 0.26 in Rain , Thunderstorm Light Thunderstorms and Rain
7:28 AM 69.8 °F - 66.2 °F 88% 29.97 in 0.8 mi WNW 6.9 mph - 0.56 in Rain , Thunderstorm Light Thunderstorms and Rain
7:32 AM 69.8 °F - 68.0 °F 94% 29.97 in 4.0 mi WNW 6.9 mph - 0.57 in Rain , Thunderstorm Light Thunderstorms and Rain
7:37 AM 69.8 °F - 68.0 °F 94% 29.98 in 4.0 mi WNW 5.8 mph - 0.58 in Rain Rain
7:56 AM 70.0 °F - 68.0 °F 93% 29.96 in 10.0 mi WNW 8.1 mph - 0.58 in Rain Light Rain
8:56 AM 70.0 °F - 68.0 °F 93% 29.94 in 10.0 mi South 3.5 mph - 0.02 in   Mostly Cloudy
9:56 AM 71.1 °F - 68.0 °F 90% 29.96 in 10.0 mi Variable 4.6 mph - 0.00 in   Scattered Clouds
10:56 AM 73.0 °F - 69.1 °F 87% 29.95 in 10.0 mi Calm Calm - N/A   Partly Cloudy
11:56 AM 77.0 °F - 70.0 °F 79% 29.94 in 10.0 mi West 6.9 mph - 0.00 in   Clear
12:56 PM 78.1 °F - 64.9 °F 64% 29.91 in 10.0 mi WNW 9.2 mph - N/A   Partly Cloudy
1:56 PM 80.1 °F 82.1 °F 66.0 °F 62% 29.91 in 10.0 mi NW 8.1 mph - N/A   Partly Cloudy
2:11 PM 80.6 °F 82.7 °F 66.2 °F 61% 29.92 in 10.0 mi Variable 5.8 mph - N/A   Mostly Cloudy
2:19 PM 80.6 °F 82.7 °F 66.2 °F 61% 29.91 in 10.0 mi Variable 4.6 mph - N/A   Mostly Cloudy
2:56 PM 78.1 °F - 66.0 °F 66% 29.89 in 10.0 mi West 5.8 mph - N/A   Overcast
3:56 PM 78.1 °F - 66.9 °F 68% 29.89 in 10.0 mi West 5.8 mph - N/A   Mostly Cloudy
4:18 PM 78.8 °F - 66.2 °F 65% 29.90 in 10.0 mi West 6.9 mph - N/A   Overcast
4:47 PM 77.0 °F - 66.2 °F 69% 29.91 in 10.0 mi NW 3.5 mph - N/A   Overcast
4:56 PM 77.0 °F - 66.9 °F 71% 29.90 in 10.0 mi WNW 4.6 mph - N/A   Overcast
5:09 PM 77.0 °F - 66.2 °F 69% 29.91 in 10.0 mi WNW 5.8 mph - N/A   Overcast
5:56 PM 73.9 °F - 66.9 °F 79% 29.90 in 10.0 mi NW 8.1 mph - N/A   Partly Cloudy
6:56 PM 71.1 °F - 66.0 °F 84% 29.91 in 10.0 mi West 3.5 mph - N/A   Clear
7:56 PM 68.0 °F - 64.9 °F 90% 29.94 in 10.0 mi West 4.6 mph - N/A   Clear
8:56 PM 68.0 °F - 64.9 °F 90% 29.96 in 10.0 mi West 5.8 mph - N/A   Clear
9:56 PM 68.0 °F - 64.0 °F 87% 29.97 in 10.0 mi WNW 4.6 mph - N/A   Clear
10:56 PM 69.1 °F - 64.0 °F 84% 29.98 in 10.0 mi WNW 5.8 mph - N/A   Scattered Clouds
11:56 PM 66.9 °F - 61.0 °F 81% 29.97 in 10.0 mi NW 9.2 mph - N/A   Clear